Roseburg, OR

4:42 AM PST on December 06, 2016 (GMT -0800)
Roseburg Regional

Weather History for KRBG - December, 2012

Change the Weather History Date:

Tuesday, December 4, 2012

  Actual Average Record
Temperature  
Mean Temperature 53 °F 43 °F  
Max Temperature 56 °F 48 °F 69 °F (1949)
Min Temperature 50 °F 37 °F 23 °F (2013)
Degree Days  
Heating Degree Days 12 22  
Month to date heating degree days 59 88  
Since 1 July heating degree days 761 1017  
Cooling Degree Days 0 0  
Month to date cooling degree days 0 0  
Year to date cooling degree days 496 480  
Growing Degree Days 3 (Base 50)    
Moisture  
Dew Point 54 °F    
Average Humidity 89    
Maximum Humidity 100    
Minimum Humidity 77    
Precipitation  
Precipitation 0.75 in 0.19 in 1.90 in (1975)
Month to date precipitation 2.65 0.75  
Year to date precipitation 36.71 30.49  
Sea Level Pressure  
Sea Level Pressure 29.89 in    
Wind  
Wind Speed 3 mph (South)    
Max Wind Speed 15 mph    
Max Gust Speed 23 mph    
Visibility 5 miles    
Events Rain    
T = Trace of Precipitation, MM = Missing Value Source: NWS Daily Summary

Daily Weather History Graph

Daily Weather History Graph

Search for Another Location

Airport or City:

Trip Planner

Search our weather history database for the weather conditions in past years. The results will help you decide how hot, cold, wet, or windy it might be!

Date:

Astronomy

Dec. 04, 2012 Rise Set
Actual Time 7:29 AM PST 4:38 PM PST
Civil Twilight 6:57 AM PST 5:10 PM PST
Nautical Twilight 6:21 AM PST 5:45 PM PST
Astronomical Twilight 5:47 AM PST 6:20 PM PST
Moon 10:38 PM PST (12/4) 11:20 AM PST (12/4)
Length of Visible Light 10h 12m
Length of Day
9h 08m
Waning Gibbous, 68% of the Moon is Illuminated
Dec 4
Waning Gibbous
Dec 6
Last Quarter
Dec 13
New
Dec 19
First Quarter
Dec 28
Full

Hourly Weather History & Observations

Time (PST) Temp. Dew Point Humidity Pressure Visibility Wind Dir Wind Speed Gust Speed Precip Events Conditions
12:53 AM 51.1 °F 46.9 °F 86% 29.79 in 10.0 mi South 6.9 mph - 0.01 in Rain Light Rain
1:53 AM 54.0 °F 46.9 °F 77% 29.79 in 10.0 mi South 8.1 mph 17.3 mph 0.00 in Rain Light Rain
2:53 AM 55.0 °F 48.0 °F 77% 29.79 in 10.0 mi South 4.6 mph - 0.01 in Rain Light Rain
3:53 AM 55.0 °F 48.9 °F 80% 29.79 in 9.0 mi SSW 3.5 mph - 0.00 in Rain Light Rain
4:53 AM 55.0 °F 51.1 °F 86% 29.82 in 5.0 mi South 3.5 mph - 0.03 in Rain Light Rain
5:53 AM 55.0 °F 52.0 °F 89% 29.83 in 10.0 mi SSE 4.6 mph - 0.03 in Rain Light Rain
6:53 AM 55.0 °F 52.0 °F 89% 29.86 in 10.0 mi South 3.5 mph - 0.00 in Rain Light Rain
7:53 AM 55.0 °F 52.0 °F 89% 29.87 in 10.0 mi Calm Calm - 0.01 in Rain Light Rain
8:34 AM 53.6 °F 53.6 °F 100% 29.89 in 2.5 mi NNW 3.5 mph - 0.01 in Rain Light Rain
8:53 AM 54.0 °F 53.1 °F 97% 29.90 in 3.0 mi Calm Calm - 0.02 in Rain Light Rain
9:03 AM 55.4 °F 53.6 °F 94% 29.90 in 2.0 mi Calm Calm - 0.00 in Rain Light Rain
9:15 AM 53.6 °F 53.6 °F 100% 29.91 in 4.0 mi Calm Calm - 0.01 in Rain Light Rain
9:53 AM 54.0 °F 54.0 °F 100% 29.92 in 6.0 mi Calm Calm - 0.03 in Rain Light Rain
10:53 AM 55.0 °F 53.1 °F 93% 29.93 in 5.0 mi Calm Calm - 0.04 in Rain Light Rain
11:53 AM 55.0 °F 54.0 °F 96% 29.91 in 2.5 mi Calm Calm - 0.09 in Rain Rain
12:26 PM 55.4 °F 55.4 °F 100% 29.91 in 3.0 mi Calm Calm - 0.07 in Rain Rain
12:53 PM 55.0 °F 55.0 °F 100% 29.91 in 3.0 mi Calm Calm - 0.10 in Rain Rain
1:01 PM 55.4 °F 55.4 °F 100% 29.90 in 2.0 mi Calm Calm - 0.02 in Rain Rain
1:14 PM 55.4 °F 55.4 °F 100% 29.90 in 2.5 mi South 3.5 mph - 0.05 in Rain Rain
1:26 PM 55.4 °F 55.4 °F 100% 29.90 in 1.8 mi South 3.5 mph - 0.07 in Rain Rain
1:37 PM 55.4 °F 55.4 °F 100% 29.90 in 2.0 mi South 3.5 mph - 0.09 in Rain Light Rain
1:50 PM 55.4 °F 55.4 °F 100% 29.89 in 2.5 mi Calm Calm - 0.11 in Rain Light Rain
1:53 PM 55.0 °F 55.0 °F 100% 29.89 in 2.5 mi Calm Calm - 0.11 in Rain Light Rain
2:30 PM 55.4 °F 55.4 °F 100% 29.88 in 1.8 mi Calm Calm - 0.04 in Rain Light Rain
2:41 PM 55.4 °F 55.4 °F 100% 29.88 in 2.5 mi Calm Calm - 0.05 in Rain Light Rain
2:53 PM 55.0 °F 55.0 °F 100% 29.88 in 2.0 mi Calm Calm - 0.05 in Rain Light Rain
3:00 PM 55.4 °F 55.4 °F 100% 29.88 in 1.8 mi Calm Calm - 0.01 in Rain Light Rain
3:09 PM 55.4 °F 55.4 °F 100% 29.88 in 3.0 mi Calm Calm - 0.01 in Rain Light Rain
3:21 PM 55.4 °F 55.4 °F 100% 29.88 in 1.8 mi Calm Calm - 0.02 in Rain Light Rain
3:28 PM 55.4 °F 55.4 °F 100% 29.89 in 3.0 mi Calm Calm - 0.03 in Rain Light Rain
3:53 PM 55.0 °F 55.0 °F 100% 29.90 in 2.0 mi Calm Calm - 0.04 in Rain Light Rain
4:01 PM 55.4 °F 55.4 °F 100% 29.89 in 1.8 mi SSE 4.6 mph - 0.01 in Rain Rain
4:11 PM 55.4 °F 55.4 °F 100% 29.89 in 2.5 mi Calm Calm - 0.02 in Rain Light Rain
4:19 PM 55.4 °F 55.4 °F 100% 29.89 in 4.0 mi Calm Calm - 0.02 in Rain Light Rain
4:53 PM 55.0 °F 55.0 °F 100% 29.90 in 5.0 mi Calm Calm - 0.03 in Rain Light Rain
5:06 PM 55.4 °F 55.4 °F 100% 29.89 in 6.0 mi ESE 3.5 mph - 0.01 in Rain Light Rain
5:53 PM 55.0 °F 55.0 °F 100% 29.89 in 9.0 mi Calm Calm - 0.02 in   Overcast
6:53 PM 55.9 °F 55.9 °F 100% 29.90 in 6.0 mi Calm Calm - 0.01 in Rain Light Rain
7:12 PM 55.4 °F 55.4 °F 100% 29.90 in 5.0 mi Calm Calm - 0.00 in Rain Light Rain
7:24 PM 55.4 °F 55.4 °F 100% 29.91 in 1.8 mi Calm Calm - 0.03 in Rain Rain
7:45 PM 53.6 °F 53.6 °F 100% 29.91 in 2.0 mi ESE 4.6 mph - 0.07 in Rain Rain
7:53 PM 55.0 °F 55.0 °F 100% 29.91 in 3.0 mi ESE 6.9 mph - 0.07 in Rain Light Rain
7:58 PM 55.4 °F 55.4 °F 100% 29.91 in 6.0 mi SE 4.6 mph - 0.01 in Rain Light Rain
8:08 PM 55.4 °F 55.4 °F 100% 29.91 in 10.0 mi SSE 4.6 mph - 0.01 in   Overcast
8:15 PM 55.4 °F 55.4 °F 100% 29.91 in 10.0 mi SSE 5.8 mph - 0.01 in   Overcast
8:53 PM 55.0 °F 54.0 °F 96% 29.92 in 10.0 mi SSE 4.6 mph - 0.01 in   Overcast
9:53 PM 55.0 °F 54.0 °F 96% 29.94 in 10.0 mi Calm Calm - 0.01 in Rain Light Rain
10:42 PM 53.6 °F 50.0 °F 88% 29.96 in 8.0 mi NW 12.7 mph 19.6 mph 0.01 in Rain Light Rain
10:53 PM 53.1 °F 48.9 °F 86% 29.98 in 10.0 mi NW 11.5 mph - 0.01 in Rain Light Rain
11:12 PM 53.6 °F 46.4 °F 77% 29.98 in 10.0 mi WNW 3.5 mph - 0.00 in Rain Light Rain
11:53 PM 52.0 °F 48.0 °F 86% 30.02 in 6.0 mi North 6.9 mph - 0.01 in Rain Light Rain